Location: Feydey
(46.3431°N, 7.0106°E)
Time: 07:06:55
(UTC+00:00)

Cosmos 2297 - Pass Details

Date: 20 June 2021
Orbit: 836 x 858 km, 71.0° (Epoch: 28 July)

Event Time Altitude Azimuth Distance (km) Brightness Sun altitude
Rises 22:55:45 0° 334° (NNW) 3,399 8.2 -19.7°
Reaches altitude 10° 22:58:12 10° 336° (NNW) 2,462 7.2 -19.8°
Maximum altitude 23:03:51 74° 62° (ENE) 878 3.8 -19.9°
Enters shadow 23:06:30 33° 141° (SE) 1,394 4.4 -19.9°
